Mount Sterling, KY

8:29 AM EDT on September 24, 2017 (GMT -0400)
Mount Sterling-Montgomery County

Weather History for KIOB - January, 2013

Change the Weather History Date:

Sunday, January 6, 2013

  Actual Average Record
Temperature  
Mean Temperature 35 °F -  
Max Temperature 42 °F 42 °F 42 °F (2013)
Min Temperature 28 °F 26 °F -4 °F (2014)
Degree Days  
Heating Degree Days 30    
Moisture  
Dew Point 29 °F    
Average Humidity 74    
Maximum Humidity 81    
Minimum Humidity 66    
Precipitation  
Precipitation 0.00 in - - ()
Sea Level Pressure  
Sea Level Pressure 30.17 in    
Wind  
Wind Speed 9 mph (West)    
Max Wind Speed 17 mph    
Max Gust Speed 26 mph    
Visibility 10 miles    
Events      
Averages and records for this station are not official NWS values.
T = Trace of Precipitation, MM = Missing Value Source: NWS Daily Summary

Daily Weather History Graph

Daily Weather History Graph

Search for Another Location

Airport or City:

Trip Planner

Search our weather history database for the weather conditions in past years. The results will help you decide how hot, cold, wet, or windy it might be!

Date:

Astronomy

Jan. 06, 2013 Rise Set
Actual Time 7:52 AM EST 5:31 PM EST
Civil Twilight 7:23 AM EST 6:00 PM EST
Nautical Twilight 6:50 AM EST 6:33 PM EST
Astronomical Twilight 6:18 AM EST 7:05 PM EST
Moon 2:07 AM EST (1/6) 12:56 PM EST (1/6)
Length of Visible Light 10h 37m
Length of Day
9h 39m
Waning Crescent, 33% of the Moon is Illuminated
Jan 6
Waning Crescent
Jan 11
New
Jan 18
First Quarter
Jan 26
Full
Feb 3
Last Quarter

Hourly Weather History & Observations

Time (EST) Temp. Windchill Dew Point Humidity Pressure Visibility Wind Dir Wind Speed Gust Speed Precip Events Conditions
12:15 AM 37.4 °F 32.1 °F 28.4 °F 70% 30.20 in 10.0 mi WSW 6.9 mph - N/A   Overcast
12:35 AM 37.4 °F 32.8 °F 28.4 °F 70% 30.19 in 10.0 mi WSW 5.8 mph - N/A   Overcast
12:55 AM 37.4 °F 32.1 °F 28.4 °F 70% 30.19 in 10.0 mi West 6.9 mph - N/A   Overcast
1:15 AM 37.4 °F 31.4 °F 28.4 °F 70% 30.19 in 10.0 mi WSW 8.1 mph - N/A   Overcast
1:35 AM 37.4 °F 32.8 °F 28.4 °F 70% 30.18 in 10.0 mi WSW 5.8 mph - N/A   Overcast
1:55 AM 37.4 °F 32.8 °F 28.4 °F 70% 30.18 in 10.0 mi WSW 5.8 mph - N/A   Overcast
2:15 AM 35.6 °F 29.9 °F 28.4 °F 75% 30.18 in 10.0 mi WSW 6.9 mph - N/A   Overcast
2:35 AM 35.6 °F 29.9 °F 28.4 °F 75% 30.17 in 10.0 mi WSW 6.9 mph - N/A   Overcast
2:55 AM 37.4 °F 31.4 °F 28.4 °F 70% 30.16 in 10.0 mi WSW 8.1 mph - N/A   Overcast
3:15 AM 37.4 °F 32.1 °F 28.4 °F 70% 30.17 in 10.0 mi WSW 6.9 mph - N/A   Overcast
3:35 AM 35.6 °F 29.9 °F 28.4 °F 75% 30.17 in 10.0 mi WSW 6.9 mph - N/A   Overcast
3:55 AM 35.6 °F 29.9 °F 28.4 °F 75% 30.15 in 10.0 mi WSW 6.9 mph - N/A   Overcast
4:35 AM 35.6 °F 30.7 °F 28.4 °F 75% 30.15 in 10.0 mi WSW 5.8 mph - N/A   Overcast
4:55 AM 35.6 °F 29.2 °F 28.4 °F 75% 30.15 in 10.0 mi WSW 8.1 mph - N/A   Overcast
5:15 AM 35.6 °F 28.6 °F 28.4 °F 75% 30.14 in 10.0 mi West 9.2 mph - N/A   Overcast
5:35 AM 37.4 °F 31.4 °F 28.4 °F 70% 30.14 in 10.0 mi WSW 8.1 mph - N/A   Overcast
5:55 AM 37.4 °F 31.4 °F 28.4 °F 70% 30.13 in 10.0 mi WSW 8.1 mph - N/A   Overcast
6:15 AM 37.4 °F 30.8 °F 30.2 °F 75% 30.13 in 10.0 mi WSW 9.2 mph - N/A   Overcast
6:35 AM 35.6 °F 29.2 °F 30.2 °F 81% 30.14 in 10.0 mi WSW 8.1 mph - N/A   Overcast
6:55 AM 35.6 °F 29.2 °F 30.2 °F 81% 30.14 in 10.0 mi WSW 8.1 mph - N/A   Overcast
7:15 AM 35.6 °F 30.7 °F 30.2 °F 81% 30.14 in 10.0 mi WSW 5.8 mph - N/A   Overcast
7:35 AM 35.6 °F 28.6 °F 30.2 °F 81% 30.14 in 10.0 mi WSW 9.2 mph - N/A   Overcast
7:55 AM 35.6 °F 29.2 °F 30.2 °F 81% 30.15 in 10.0 mi WSW 8.1 mph - N/A   Overcast
8:15 AM 35.6 °F 28.6 °F 30.2 °F 81% 30.14 in 10.0 mi WSW 9.2 mph - N/A   Overcast
8:35 AM 35.6 °F 28.6 °F 30.2 °F 81% 30.15 in 10.0 mi WSW 9.2 mph - N/A   Overcast
8:55 AM 37.4 °F 30.3 °F 30.2 °F 75% 30.14 in 10.0 mi WSW 10.4 mph 16.1 mph N/A   Overcast
9:15 AM 37.4 °F 30.8 °F 30.2 °F 75% 30.15 in 10.0 mi WSW 9.2 mph 16.1 mph N/A   Overcast
9:35 AM 37.4 °F 30.3 °F 32.0 °F 81% 30.15 in 10.0 mi WSW 10.4 mph - N/A   Overcast
9:55 AM 37.4 °F 28.9 °F 32.0 °F 81% 30.15 in 10.0 mi WSW 13.8 mph 18.4 mph N/A   Overcast
10:15 AM 37.4 °F 30.3 °F 32.0 °F 81% 30.15 in 10.0 mi WSW 10.4 mph - N/A   Overcast
10:35 AM 39.2 °F 32.0 °F 32.0 °F 75% 30.15 in 10.0 mi WSW 11.5 mph - N/A   Overcast
10:55 AM 39.2 °F 32.5 °F 32.0 °F 75% 30.14 in 10.0 mi WSW 10.4 mph - N/A   Overcast
11:15 AM 41.0 °F 35.2 °F 32.0 °F 70% 30.14 in 10.0 mi West 9.2 mph 16.1 mph N/A   Overcast
11:35 AM 41.0 °F 33.5 °F 32.0 °F 70% 30.12 in 10.0 mi WSW 13.8 mph 21.9 mph N/A   Overcast
11:55 AM 41.0 °F 34.7 °F 32.0 °F 70% 30.12 in 10.0 mi WSW 10.4 mph 16.1 mph N/A   Overcast
12:15 PM 41.0 °F 33.9 °F 32.0 °F 70% 30.10 in 10.0 mi WSW 12.7 mph 20.7 mph N/A   Overcast
12:35 PM 42.8 °F 35.1 °F 32.0 °F 66% 30.09 in 10.0 mi West 16.1 mph 25.3 mph N/A   Overcast
12:55 PM 41.0 °F 33.1 °F 32.0 °F 70% 30.08 in 10.0 mi WSW 15.0 mph 24.2 mph N/A   Overcast
1:15 PM 42.8 °F 36.6 °F 32.0 °F 66% 30.07 in 10.0 mi West 11.5 mph 20.7 mph N/A   Overcast
1:35 PM 42.8 °F 35.8 °F 32.0 °F 66% 30.07 in 10.0 mi West 13.8 mph 19.6 mph N/A   Overcast
1:55 PM 41.0 °F 33.5 °F 32.0 °F 70% 30.07 in 10.0 mi West 13.8 mph 19.6 mph N/A   Overcast
2:15 PM 42.8 °F 36.6 °F 32.0 °F 66% 30.07 in 10.0 mi WSW 11.5 mph 18.4 mph N/A   Overcast
2:35 PM 41.0 °F 33.9 °F 32.0 °F 70% 30.08 in 10.0 mi West 12.7 mph 18.4 mph N/A   Overcast
2:55 PM 41.0 °F 33.5 °F 32.0 °F 70% 30.08 in 10.0 mi West 13.8 mph 23.0 mph N/A   Overcast
3:15 PM 41.0 °F 33.9 °F 32.0 °F 70% 30.09 in 10.0 mi West 12.7 mph 21.9 mph N/A   Overcast
3:35 PM 41.0 °F 34.7 °F 32.0 °F 70% 30.11 in 10.0 mi WNW 10.4 mph 23.0 mph N/A   Overcast
3:55 PM 41.0 °F 33.9 °F 32.0 °F 70% 30.12 in 10.0 mi WNW 12.7 mph 24.2 mph N/A   Overcast
4:15 PM 39.2 °F 31.2 °F 32.0 °F 75% 30.13 in 10.0 mi WNW 13.8 mph 21.9 mph N/A   Overcast
4:35 PM 39.2 °F 30.2 °F 32.0 °F 75% 30.13 in 10.0 mi NW 17.3 mph 23.0 mph N/A   Mostly Cloudy
4:55 PM 37.4 °F 28.5 °F 30.2 °F 75% 30.15 in 10.0 mi NW 15.0 mph 26.5 mph N/A   Mostly Cloudy
5:15 PM 37.4 °F 30.3 °F 30.2 °F 75% 30.17 in 10.0 mi NW 10.4 mph 26.5 mph N/A   Mostly Cloudy
5:35 PM 35.6 °F 28.6 °F 30.2 °F 81% 30.18 in 10.0 mi NW 9.2 mph 23.0 mph N/A   Overcast
5:55 PM 35.6 °F 27.1 °F 30.2 °F 81% 30.20 in 10.0 mi NW 12.7 mph 18.4 mph N/A   Overcast
6:15 PM 33.8 °F 25.8 °F 28.4 °F 81% 30.21 in 10.0 mi NW 10.4 mph 21.9 mph N/A   Overcast
6:35 PM 33.8 °F 25.3 °F 28.4 °F 81% 30.23 in 10.0 mi NW 11.5 mph 18.4 mph N/A   Overcast
6:55 PM 33.8 °F 24.3 °F 26.6 °F 75% 30.24 in 10.0 mi NW 13.8 mph 19.6 mph N/A   Overcast
7:15 PM 33.8 °F 25.8 °F 26.6 °F 75% 30.25 in 10.0 mi NNW 10.4 mph 18.4 mph N/A   Overcast
7:35 PM 33.8 °F 26.4 °F 26.6 °F 75% 30.25 in 10.0 mi NW 9.2 mph 20.7 mph N/A   Overcast
7:55 PM 32.0 °F 24.2 °F 26.6 °F 80% 30.27 in 10.0 mi NW 9.2 mph 18.4 mph N/A   Overcast
8:15 PM 32.0 °F 22.5 °F 26.6 °F 80% 30.28 in 10.0 mi NW 12.7 mph 16.1 mph N/A   Overcast
8:35 PM 32.0 °F 24.8 °F 26.6 °F 80% 30.29 in 10.0 mi NW 8.1 mph - N/A   Overcast
8:55 PM 32.0 °F 23.6 °F 26.6 °F 80% 30.30 in 10.0 mi NNW 10.4 mph 17.3 mph N/A   Overcast
9:15 PM 32.0 °F 23.0 °F 24.8 °F 75% 30.31 in 10.0 mi NNW 11.5 mph 17.3 mph N/A   Overcast
9:35 PM 32.0 °F 25.6 °F 23.0 °F 69% 30.32 in 10.0 mi NNW 6.9 mph 18.4 mph N/A   Overcast
9:55 PM 32.0 °F 24.2 °F 24.8 °F 75% 30.33 in 10.0 mi North 9.2 mph - N/A   Overcast
10:15 PM 30.2 °F 21.9 °F 23.0 °F 75% 30.33 in 10.0 mi North 9.2 mph - N/A   Overcast
10:55 PM 28.4 °F 24.6 °F 21.2 °F 74% 30.35 in 10.0 mi NNW 3.5 mph - N/A   Clear
11:35 PM 28.4 °F 22.2 °F 21.2 °F 74% 30.36 in 10.0 mi North 5.8 mph - N/A   Clear
11:55 PM 28.4 °F 23.3 °F 21.2 °F 74% 30.37 in 10.0 mi NNW 4.6 mph - N/A   Clear